owner,sensor,date,latitude,longitude,vertical_datum,wind_speed,wind_to_direction,wind_speed_of_gust,qcFlag 
TCOON,ioos:station:TCOON:146:1,2015-04-01T00:30:00Z,28.1324,-97.0345,0.0,5.3,218.0,6.3,'1111122,1111122,1111122' 
TCOON,ioos:station:TCOON:146:1,2015-04-01T01:30:00Z,28.1324,-97.0345,0.0,6.4,225.0,7.6,'1111122,1111122,1111122' 
TCOON,ioos:station:TCOON:146:1,2015-04-01T02:30:00Z,28.1324,-97.0345,0.0,7.8,234.0,9.1,'1111122,1111122,1111122' 
TCOON,ioos:station:TCOON:146:1,2015-04-01T03:30:00Z,28.1324,-97.0345,0.0,6.3,232.0,7.7,'1111122,1111122,1111122' 
TCOON,ioos:station:TCOON:146:1,2015-04-01T04:30:00Z,28.1324,-97.0345,0.0,5.4,236.0,6.5,'1111122,1111122,1111122' 
TCOON,ioos:station:TCOON:146:1,2015-04-01T05:30:00Z,28.1324,-97.0345,0.0,4.6,239.0,6.2,'1111122,1111122,1111122' 
TCOON,ioos:station:TCOON:146:1,2015-04-01T08:30:00Z,28.1324,-97.0345,0.0,4.3,239.0,5.5,'1111122,1111122,1111122' 
TCOON,ioos:station:TCOON:146:1,2015-04-01T09:30:00Z,28.1324,-97.0345,0.0,4.4,251.0,5.5,'1111122,1111122,1111122' 
TCOON,ioos:station:TCOON:146:1,2015-04-01T10:30:00Z,28.1324,-97.0345,0.0,4.5,253.0,5.6,'1111122,1111122,1111122' 
TCOON,ioos:station:TCOON:146:1,2015-04-01T11:30:00Z,28.1324,-97.0345,0.0,4.5,228.0,5.6,'1111122,1111122,1111122' 
TCOON,ioos:station:TCOON:146:1,2015-04-01T12:30:00Z,28.1324,-97.0345,0.0,4.3,210.0,5.1,'1111122,1111122,1111122' 
TCOON,ioos:station:TCOON:146:1,2015-04-01T13:30:00Z,28.1324,-97.0345,0.0,2.8,267.0,3.9,'1111122,1111122,1111122' 
TCOON,ioos:station:TCOON:146:1,2015-04-01T14:30:00Z,28.1324,-97.0345,0.0,4.2,249.0,5.2,'1111122,1111122,1111122' 
TCOON,ioos:station:TCOON:146:1,2015-04-01T15:30:00Z,28.1324,-97.0345,0.0,4.3,230.0,5.1,'1111122,1111122,1111122' 
TCOON,ioos:station:TCOON:146:1,2015-04-01T16:30:00Z,28.1324,-97.0345,0.0,4.4,215.0,5.4,'1111122,1111122,1111122' 
TCOON,ioos:station:TCOON:146:1,2015-04-01T17:30:00Z,28.1324,-97.0345,0.0,4.3,214.0,5.1,'1111122,1111122,1111122' 
TCOON,ioos:station:TCOON:146:1,2015-04-01T18:30:00Z,28.1324,-97.0345,0.0,4.3,237.0,5.3,'1111122,1111122,1111122' 
TCOON,ioos:station:TCOON:146:1,2015-04-01T19:30:00Z,28.1324,-97.0345,0.0,5.0,218.0,6.0,'1111122,1111122,1111122' 
TCOON,ioos:station:TCOON:146:1,2015-04-01T20:30:00Z,28.1324,-97.0345,0.0,4.9,214.0,5.9,'1111122,1111122,1111122' 
TCOON,ioos:station:TCOON:146:1,2015-04-01T21:30:00Z,28.1324,-97.0345,0.0,5.8,214.0,7.3,'1111122,1111122,1111122' 
TCOON,ioos:station:TCOON:146:1,2015-04-01T22:30:00Z,28.1324,-97.0345,0.0,6.8,215.0,8.2,'1111122,1111122,1111122' 
TCOON,ioos:station:TCOON:146:1,2015-04-02T00:30:00Z,28.1324,-97.0345,0.0,6.4,220.0,7.6,'1111122,1111122,1111122' 
TCOON,ioos:station:TCOON:146:1,2015-04-02T01:30:00Z,28.1324,-97.0345,0.0,5.6,219.0,6.7,'1111122,1111122,1111122' 
TCOON,ioos:station:TCOON:146:1,2015-04-02T03:30:00Z,28.1324,-97.0345,0.0,4.7,223.0,5.6,'1111122,1111122,1111122' 
TCOON,ioos:station:TCOON:146:1,2015-04-02T04:30:00Z,28.1324,-97.0345,0.0,5.5,228.0,6.6,'1111122,1111122,1111122' 
TCOON,ioos:station:TCOON:146:1,2015-04-02T05:30:00Z,28.1324,-97.0345,0.0,5.8,227.0,6.8,'1111122,1111122,1111122' 
TCOON,ioos:station:TCOON:146:1,2015-04-02T06:30:00Z,28.1324,-97.0345,0.0,5.9,227.0,7.3,'1111122,1111122,1111122' 
TCOON,ioos:station:TCOON:146:1,2015-04-02T07:30:00Z,28.1324,-97.0345,0.0,5.5,230.0,6.5,'1111122,1111122,1111122' 
TCOON,ioos:station:TCOON:146:1,2015-04-02T08:30:00Z,28.1324,-97.0345,0.0,5.0,241.0,6.7,'1111122,1111122,1111122' 
TCOON,ioos:station:TCOON:146:1,2015-04-02T09:30:00Z,28.1324,-97.0345,0.0,4.8,250.0,6.0,'1111122,1111122,1111122' 
TCOON,ioos:station:TCOON:146:1,2015-04-02T10:30:00Z,28.1324,-97.0345,0.0,4.5,255.0,6.1,'1111122,1111122,1111122' 
TCOON,ioos:station:TCOON:146:1,2015-04-02T11:30:00Z,28.1324,-97.0345,0.0,4.3,247.0,5.1,'1111122,1111122,1111122' 
TCOON,ioos:station:TCOON:146:1,2015-04-02T12:30:00Z,28.1324,-97.0345,0.0,4.3,239.0,5.2,'1111122,1111122,1111122' 
TCOON,ioos:station:TCOON:146:1,2015-04-02T13:30:00Z,28.1324,-97.0345,0.0,4.2,232.0,5.1,'1111122,1111122,1111122' 
TCOON,ioos:station:TCOON:146:1,2015-04-02T14:30:00Z,28.1324,-97.0345,0.0,4.4,232.0,5.7,'1111122,1111122,1111122' 
TCOON,ioos:station:TCOON:146:1,2015-04-02T15:30:00Z,28.1324,-97.0345,0.0,4.6,232.0,5.4,'1111122,1111122,1111122' 
TCOON,ioos:station:TCOON:146:1,2015-04-02T16:30:00Z,28.1324,-97.0345,0.0,4.9,235.0,6.1,'1111122,1111122,1111122' 
TCOON,ioos:station:TCOON:146:1,2015-04-02T17:30:00Z,28.1324,-97.0345,0.0,5.2,234.0,6.5,'1111122,1111122,1111122' 
TCOON,ioos:station:TCOON:146:1,2015-04-02T18:30:00Z,28.1324,-97.0345,0.0,5.6,232.0,7.0,'1111122,1111122,1111122' 
TCOON,ioos:station:TCOON:146:1,2015-04-02T19:30:00Z,28.1324,-97.0345,0.0,5.6,232.0,6.8,'1111122,1111122,1111122' 
TCOON,ioos:station:TCOON:146:1,2015-04-02T20:30:00Z,28.1324,-97.0345,0.0,5.7,232.0,6.8,'1111122,1111122,1111122' 
TCOON,ioos:station:TCOON:146:1,2015-04-02T21:30:00Z,28.1324,-97.0345,0.0,5.5,231.0,6.5,'1111122,1111122,1111122' 
TCOON,ioos:station:TCOON:146:1,2015-04-02T22:30:00Z,28.1324,-97.0345,0.0,5.2,223.0,6.2,'1111122,1111122,1111122' 
TCOON,ioos:station:TCOON:146:1,2015-04-02T23:30:00Z,28.1324,-97.0345,0.0,4.8,221.0,5.7,'1111122,1111122,1111122' 
TCOON,ioos:station:TCOON:146:1,2015-04-03T00:30:00Z,28.1324,-97.0345,0.0,4.6,212.0,5.5,'1111122,1111122,1111122' 
TCOON,ioos:station:TCOON:146:1,2015-04-03T01:30:00Z,28.1324,-97.0345,0.0,4.6,210.0,5.6,'1111122,1111122,1111122' 
TCOON,ioos:station:TCOON:146:1,2015-04-03T02:30:00Z,28.1324,-97.0345,0.0,4.7,211.0,5.7,'1111122,1111122,1111122' 
TCOON,ioos:station:TCOON:146:1,2015-04-03T03:30:00Z,28.1324,-97.0345,0.0,6.4,218.0,7.8,'1111122,1111122,1111122' 
TCOON,ioos:station:TCOON:146:1,2015-04-03T04:30:00Z,28.1324,-97.0345,0.0,5.9,229.0,7.3,'1111122,1111122,1111122' 
TCOON,ioos:station:TCOON:146:1,2015-04-03T05:30:00Z,28.1324,-97.0345,0.0,5.3,233.0,6.8,'1111122,1111122,1111122' 
TCOON,ioos:station:TCOON:146:1,2015-04-03T06:30:00Z,28.1324,-97.0345,0.0,5.7,239.0,7.1,'1111122,1111122,1111122' 
TCOON,ioos:station:TCOON:146:1,2015-04-03T07:30:00Z,28.1324,-97.0345,0.0,4.8,246.0,6.3,'1111122,1111122,1111122' 
TCOON,ioos:station:TCOON:146:1,2015-04-03T08:30:00Z,28.1324,-97.0345,0.0,4.9,253.0,6.7,'1111122,1111122,1111122' 
TCOON,ioos:station:TCOON:146:1,2015-04-03T09:30:00Z,28.1324,-97.0345,0.0,4.2,251.0,5.1,'1111122,1111122,1111122' 
TCOON,ioos:station:TCOON:146:1,2015-04-03T10:30:00Z,28.1324,-97.0345,0.0,4.5,244.0,5.6,'1111122,1111122,1111122' 
TCOON,ioos:station:TCOON:146:1,2015-04-03T11:30:00Z,28.1324,-97.0345,0.0,4.2,240.0,5.2,'1111122,1111122,1111122' 
TCOON,ioos:station:TCOON:146:1,2015-04-03T12:30:00Z,28.1324,-97.0345,0.0,4.8,228.0,5.9,'1111122,1111122,1111122' 
TCOON,ioos:station:TCOON:146:1,2015-04-03T13:30:00Z,28.1324,-97.0345,0.0,4.8,239.0,6.1,'1111122,1111122,1111122' 
TCOON,ioos:station:TCOON:146:1,2015-04-03T14:30:00Z,28.1324,-97.0345,0.0,4.8,237.0,5.8,'1111122,1111122,1111122' 
TCOON,ioos:station:TCOON:146:1,2015-04-03T15:30:00Z,28.1324,-97.0345,0.0,4.4,235.0,6.0,'1111122,1111122,1111122' 
TCOON,ioos:station:TCOON:146:1,2015-04-03T16:30:00Z,28.1324,-97.0345,0.0,4.6,235.0,6.1,'1111122,1111122,1111122' 
TCOON,ioos:station:TCOON:146:1,2015-04-03T17:30:00Z,28.1324,-97.0345,0.0,4.5,238.0,5.8,'1111122,1111122,1111122' 
TCOON,ioos:station:TCOON:146:1,2015-04-03T18:30:00Z,28.1324,-97.0345,0.0,4.3,239.0,5.4,'1111122,1111122,1111122' 
TCOON,ioos:station:TCOON:146:1,2015-04-03T19:30:00Z,28.1324,-97.0345,0.0,4.1,225.0,5.0,'1111122,1111122,1111122' 
TCOON,ioos:station:TCOON:146:1,2015-04-03T20:30:00Z,28.1324,-97.0345,0.0,4.3,218.0,5.1,'1111122,1111122,1111122' 
TCOON,ioos:station:TCOON:146:1,2015-04-03T21:30:00Z,28.1324,-97.0345,0.0,4.2,208.0,5.0,'1111122,1111122,1111122' 
TCOON,ioos:station:TCOON:146:1,2015-04-03T22:30:00Z,28.1324,-97.0345,0.0,4.1,194.0,4.8,'1111122,1111122,1111122' 
TCOON,ioos:station:TCOON:146:1,2015-04-03T23:30:00Z,28.1324,-97.0345,0.0,4.2,165.0,4.9,'1111122,1111122,1111122' 
TCOON,ioos:station:TCOON:146:1,2015-04-04T00:30:00Z,28.1324,-97.0345,0.0,4.6,172.0,5.4,'1111122,1111122,1111122' 
TCOON,ioos:station:TCOON:146:1,2015-04-04T01:30:00Z,28.1324,-97.0345,0.0,4.9,178.0,5.7,'1111122,1111122,1111122' 
TCOON,ioos:station:TCOON:146:1,2015-04-04T02:30:00Z,28.1324,-97.0345,0.0,4.2,169.0,5.0,'1111122,1111122,1111122' 
TCOON,ioos:station:TCOON:146:1,2015-04-04T03:30:00Z,28.1324,-97.0345,0.0,4.3,166.0,5.0,'1111122,1111122,1111122' 
TCOON,ioos:station:TCOON:146:1,2015-04-04T04:30:00Z,28.1324,-97.0345,0.0,4.1,171.0,4.9,'1111122,1111122,1111122' 
TCOON,ioos:station:TCOON:146:1,2015-04-04T05:30:00Z,28.1324,-97.0345,0.0,4.2,163.0,5.0,'1111122,1111122,1111122' 
TCOON,ioos:station:TCOON:146:1,2015-04-04T08:30:00Z,28.1324,-97.0345,0.0,5.0,100.0,6.2,'1111122,1111122,1111122' 
TCOON,ioos:station:TCOON:146:1,2015-04-04T09:30:00Z,28.1324,-97.0345,0.0,5.4,97.0,6.6,'1111122,1111122,1111122' 
TCOON,ioos:station:TCOON:146:1,2015-04-04T10:30:00Z,28.1324,-97.0345,0.0,6.2,98.0,7.5,'1111122,1111122,1111122' 
TCOON,ioos:station:TCOON:146:1,2015-04-04T11:30:00Z,28.1324,-97.0345,0.0,6.4,96.0,7.6,'1111122,1111122,1111122' 
TCOON,ioos:station:TCOON:146:1,2015-04-04T12:30:00Z,28.1324,-97.0345,0.0,5.7,102.0,7.1,'1111122,1111122,1111122' 
TCOON,ioos:station:TCOON:146:1,2015-04-04T13:30:00Z,28.1324,-97.0345,0.0,6.0,103.0,7.3,'1111122,1111122,1111122' 
TCOON,ioos:station:TCOON:146:1,2015-04-04T16:30:00Z,28.1324,-97.0345,0.0,6.1,112.0,7.4,'1111122,1111122,1111122' 
TCOON,ioos:station:TCOON:146:1,2015-04-04T17:30:00Z,28.1324,-97.0345,0.0,5.2,117.0,6.6,'1111122,1111122,1111122' 
TCOON,ioos:station:TCOON:146:1,2015-04-05T01:30:00Z,28.1324,-97.0345,0.0,5.7,157.0,7.0,'1111122,1111122,1111122' 
TCOON,ioos:station:TCOON:146:1,2015-04-05T02:30:00Z,28.1324,-97.0345,0.0,5.0,152.0,5.9,'1111122,1111122,1111122' 
TCOON,ioos:station:TCOON:146:1,2015-04-05T04:30:00Z,28.1324,-97.0345,0.0,4.5,147.0,6.3,'1111122,1111122,1111122' 
TCOON,ioos:station:TCOON:146:1,2015-04-05T05:30:00Z,28.1324,-97.0345,0.0,4.7,155.0,5.8,'1111122,1111122,1111122' 
TCOON,ioos:station:TCOON:146:1,2015-04-05T08:30:00Z,28.1324,-97.0345,0.0,4.6,162.0,5.2,'1111122,1111122,1111122' 
TCOON,ioos:station:TCOON:146:1,2015-04-05T09:30:00Z,28.1324,-97.0345,0.0,2.7,131.0,3.8,'1111122,1111122,1111122' 
TCOON,ioos:station:TCOON:146:1,2015-04-05T10:30:00Z,28.1324,-97.0345,0.0,4.0,151.0,5.2,'1111122,1111122,1111122' 
TCOON,ioos:station:TCOON:146:1,2015-04-05T12:30:00Z,28.1324,-97.0345,0.0,4.4,198.0,5.1,'1111122,1111122,1111122' 
TCOON,ioos:station:TCOON:146:1,2015-04-05T13:30:00Z,28.1324,-97.0345,0.0,4.2,222.0,4.9,'1111122,1111122,1111122' 
TCOON,ioos:station:TCOON:146:1,2015-04-05T14:30:00Z,28.1324,-97.0345,0.0,4.4,265.0,5.2,'1111122,1111122,1111122' 
TCOON,ioos:station:TCOON:146:1,2015-04-05T21:30:00Z,28.1324,-97.0345,0.0,4.1,216.0,5.0,'1111122,1111122,1111122' 
TCOON,ioos:station:TCOON:146:1,2015-04-05T22:30:00Z,28.1324,-97.0345,0.0,4.4,216.0,5.1,'1111122,1111122,1111122' 
TCOON,ioos:station:TCOON:146:1,2015-04-05T23:30:00Z,28.1324,-97.0345,0.0,4.5,208.0,5.7,'1111122,1111122,1111122' 
TCOON,ioos:station:TCOON:146:1,2015-04-06T01:30:00Z,28.1324,-97.0345,0.0,4.2,196.0,5.2,'1111122,1111122,1111122' 
TCOON,ioos:station:TCOON:146:1,2015-04-06T02:30:00Z,28.1324,-97.0345,0.0,5.0,201.0,6.3,'1111122,1111122,1111122' 
TCOON,ioos:station:TCOON:146:1,2015-04-06T03:30:00Z,28.1324,-97.0345,0.0,4.2,207.0,5.1,'1111122,1111122,1111122' 
TCOON,ioos:station:TCOON:146:1,2015-04-06T04:30:00Z,28.1324,-97.0345,0.0,5.0,209.0,6.1,'1111122,1111122,1111122' 
TCOON,ioos:station:TCOON:146:1,2015-04-06T05:30:00Z,28.1324,-97.0345,0.0,5.5,209.0,6.8,'1111122,1111122,1111122' 
TCOON,ioos:station:TCOON:146:1,2015-04-06T06:30:00Z,28.1324,-97.0345,0.0,5.9,210.0,7.0,'1111122,1111122,1111122' 
TCOON,ioos:station:TCOON:146:1,2015-04-06T07:30:00Z,28.1324,-97.0345,0.0,6.4,216.0,7.7,'1111122,1111122,1111122' 
TCOON,ioos:station:TCOON:146:1,2015-04-06T08:30:00Z,28.1324,-97.0345,0.0,5.5,211.0,6.6,'1111122,1111122,1111122' 
TCOON,ioos:station:TCOON:146:1,2015-04-06T09:30:00Z,28.1324,-97.0345,0.0,5.4,217.0,6.4,'1111122,1111122,1111122' 
TCOON,ioos:station:TCOON:146:1,2015-04-06T11:30:00Z,28.1324,-97.0345,0.0,4.5,230.0,5.1,'1111122,1111122,1111122' 
TCOON,ioos:station:TCOON:146:1,2015-04-06T12:30:00Z,28.1324,-97.0345,0.0,3.6,226.0,4.3,'1111122,1111122,1111122' 
TCOON,ioos:station:TCOON:146:1,2015-04-06T13:30:00Z,28.1324,-97.0345,0.0,2.4,211.0,3.0,'1111122,1111122,1111122' 
TCOON,ioos:station:TCOON:146:1,2015-04-06T14:30:00Z,28.1324,-97.0345,0.0,3.2,197.0,4.2,'1111122,1111122,1111122' 
TCOON,ioos:station:TCOON:146:1,2015-04-06T16:30:00Z,28.1324,-97.0345,0.0,4.6,217.0,5.4,'1111122,1111122,1111122' 
TCOON,ioos:station:TCOON:146:1,2015-04-06T17:30:00Z,28.1324,-97.0345,0.0,4.9,220.0,5.9,'1111122,1111122,1111122' 
TCOON,ioos:station:TCOON:146:1,2015-04-06T18:30:00Z,28.1324,-97.0345,0.0,5.4,216.0,6.6,'1111122,1111122,1111122' 
TCOON,ioos:station:TCOON:146:1,2015-04-06T20:30:00Z,28.1324,-97.0345,0.0,5.6,223.0,6.9,'1111122,1111122,1111122' 
TCOON,ioos:station:TCOON:146:1,2015-04-06T21:30:00Z,28.1324,-97.0345,0.0,5.8,220.0,7.1,'1111122,1111122,1111122' 
TCOON,ioos:station:TCOON:146:1,2015-04-06T22:30:00Z,28.1324,-97.0345,0.0,6.0,214.0,7.4,'1111122,1111122,1111122' 
TCOON,ioos:station:TCOON:146:1,2015-04-07T01:30:00Z,28.1324,-97.0345,0.0,5.8,218.0,6.9,'1111122,1111122,1111122' 
TCOON,ioos:station:TCOON:146:1,2015-04-07T02:30:00Z,28.1324,-97.0345,0.0,5.7,214.0,7.0,'1111122,1111122,1111122' 
TCOON,ioos:station:TCOON:146:1,2015-04-07T03:30:00Z,28.1324,-97.0345,0.0,4.8,213.0,5.9,'1111122,1111122,1111122' 
TCOON,ioos:station:TCOON:146:1,2015-04-07T04:30:00Z,28.1324,-97.0345,0.0,5.0,214.0,6.0,'1111122,1111122,1111122' 
TCOON,ioos:station:TCOON:146:1,2015-04-07T05:30:00Z,28.1324,-97.0345,0.0,4.7,218.0,5.6,'1111122,1111122,1111122' 
TCOON,ioos:station:TCOON:146:1,2015-04-07T08:30:00Z,28.1324,-97.0345,0.0,6.0,225.0,7.1,'1111122,1111122,1111122' 
TCOON,ioos:station:TCOON:146:1,2015-04-07T09:30:00Z,28.1324,-97.0345,0.0,6.2,232.0,7.4,'1111122,1111122,1111122' 
TCOON,ioos:station:TCOON:146:1,2015-04-07T11:30:00Z,28.1324,-97.0345,0.0,4.6,244.0,5.8,'1111122,1111122,1111122' 
TCOON,ioos:station:TCOON:146:1,2015-04-07T12:30:00Z,28.1324,-97.0345,0.0,4.7,240.0,6.0,'1111122,1111122,1111122' 
TCOON,ioos:station:TCOON:146:1,2015-04-07T13:30:00Z,28.1324,-97.0345,0.0,4.4,235.0,5.2,'1111122,1111122,1111122' 
TCOON,ioos:station:TCOON:146:1,2015-04-07T14:30:00Z,28.1324,-97.0345,0.0,4.2,227.0,5.1,'1111122,1111122,1111122' 
TCOON,ioos:station:TCOON:146:1,2015-04-07T16:30:00Z,28.1324,-97.0345,0.0,4.2,239.0,5.2,'1111122,1111122,1111122' 
TCOON,ioos:station:TCOON:146:1,2015-04-07T17:30:00Z,28.1324,-97.0345,0.0,4.8,234.0,6.0,'1111122,1111122,1111122' 
TCOON,ioos:station:TCOON:146:1,2015-04-07T18:30:00Z,28.1324,-97.0345,0.0,4.6,234.0,5.7,'1111122,1111122,1111122' 
TCOON,ioos:station:TCOON:146:1,2015-04-07T20:30:00Z,28.1324,-97.0345,0.0,5.0,227.0,6.0,'1111122,1111122,1111122' 
TCOON,ioos:station:TCOON:146:1,2015-04-07T21:30:00Z,28.1324,-97.0345,0.0,4.9,223.0,5.8,'1111122,1111122,1111122' 
TCOON,ioos:station:TCOON:146:1,2015-04-08T00:30:00Z,28.1324,-97.0345,0.0,4.8,210.0,5.7,'1111122,1111122,1111122' 
TCOON,ioos:station:TCOON:146:1,2015-04-08T01:30:00Z,28.1324,-97.0345,0.0,5.0,211.0,6.0,'1111122,1111122,1111122' 
TCOON,ioos:station:TCOON:146:1,2015-04-08T02:30:00Z,28.1324,-97.0345,0.0,5.6,216.0,6.6,'1111122,1111122,1111122' 
TCOON,ioos:station:TCOON:146:1,2015-04-08T03:30:00Z,28.1324,-97.0345,0.0,5.7,228.0,7.0,'1111122,1111122,1111122' 
TCOON,ioos:station:TCOON:146:1,2015-04-08T04:30:00Z,28.1324,-97.0345,0.0,4.8,231.0,5.7,'1111122,1111122,1111122' 
TCOON,ioos:station:TCOON:146:1,2015-04-08T05:30:00Z,28.1324,-97.0345,0.0,5.6,238.0,7.1,'1111122,1111122,1111122' 
TCOON,ioos:station:TCOON:146:1,2015-04-08T08:30:00Z,28.1324,-97.0345,0.0,5.2,238.0,6.9,'1111122,1111122,1111122' 
TCOON,ioos:station:TCOON:146:1,2015-04-08T09:30:00Z,28.1324,-97.0345,0.0,5.4,243.0,7.2,'1111122,1111122,1111122' 
TCOON,ioos:station:TCOON:146:1,2015-04-08T10:30:00Z,28.1324,-97.0345,0.0,5.0,241.0,6.4,'1111122,1111122,1111122' 
TCOON,ioos:station:TCOON:146:1,2015-04-08T11:30:00Z,28.1324,-97.0345,0.0,4.3,243.0,5.4,'1111122,1111122,1111122' 
TCOON,ioos:station:TCOON:146:1,2015-04-08T12:30:00Z,28.1324,-97.0345,0.0,4.3,241.0,5.4,'1111122,1111122,1111122' 
TCOON,ioos:station:TCOON:146:1,2015-04-08T13:30:00Z,28.1324,-97.0345,0.0,4.1,232.0,5.0,'1111122,1111122,1111122' 
TCOON,ioos:station:TCOON:146:1,2015-04-08T14:30:00Z,28.1324,-97.0345,0.0,4.9,234.0,5.8,'1111122,1111122,1111122' 
TCOON,ioos:station:TCOON:146:1,2015-04-08T15:30:00Z,28.1324,-97.0345,0.0,5.3,235.0,6.4,'1111122,1111122,1111122' 
TCOON,ioos:station:TCOON:146:1,2015-04-08T16:30:00Z,28.1324,-97.0345,0.0,5.3,235.0,6.4,'1111122,1111122,1111122' 
TCOON,ioos:station:TCOON:146:1,2015-04-08T17:30:00Z,28.1324,-97.0345,0.0,6.0,236.0,7.7,'1111122,1111122,1111122' 
TCOON,ioos:station:TCOON:146:1,2015-04-08T18:30:00Z,28.1324,-97.0345,0.0,6.1,232.0,7.8,'1111122,1111122,1111122' 
TCOON,ioos:station:TCOON:146:1,2015-04-09T00:00:00Z,28.1324,-97.0345,0.0,5.7,210.0,6.7,'1111122,1111122,1111122' 
TCOON,ioos:station:TCOON:146:1,2015-04-09T00:30:00Z,28.1324,-97.0345,0.0,5.6,213.0,6.7,'1111122,1111122,1111122' 
TCOON,ioos:station:TCOON:146:1,2015-04-09T01:30:00Z,28.1324,-97.0345,0.0,5.0,213.0,6.0,'1111122,1111122,1111122' 
TCOON,ioos:station:TCOON:146:1,2015-04-09T03:30:00Z,28.1324,-97.0345,0.0,5.1,215.0,6.4,'1111122,1111122,1111122' 
TCOON,ioos:station:TCOON:146:1,2015-04-09T05:30:00Z,28.1324,-97.0345,0.0,5.1,238.0,6.2,'1111122,1111122,1111122' 
TCOON,ioos:station:TCOON:146:1,2015-04-09T08:30:00Z,28.1324,-97.0345,0.0,6.1,232.0,7.9,'1111122,1111122,1111122' 
TCOON,ioos:station:TCOON:146:1,2015-04-09T10:00:00Z,28.1324,-97.0345,0.0,4.2,261.0,5.1,'1111122,1111122,1111122' 
TCOON,ioos:station:TCOON:146:1,2015-04-09T10:30:00Z,28.1324,-97.0345,0.0,4.3,241.0,5.2,'1111122,1111122,1111122' 
TCOON,ioos:station:TCOON:146:1,2015-04-09T11:30:00Z,28.1324,-97.0345,0.0,4.6,225.0,5.4,'1111122,1111122,1111122' 
TCOON,ioos:station:TCOON:146:1,2015-04-09T12:30:00Z,28.1324,-97.0345,0.0,4.7,222.0,6.0,'1111122,1111122,1111122' 
TCOON,ioos:station:TCOON:146:1,2015-04-09T13:30:00Z,28.1324,-97.0345,0.0,6.1,233.0,7.1,'1111122,1111122,1111122' 
TCOON,ioos:station:TCOON:146:1,2015-04-09T14:30:00Z,28.1324,-97.0345,0.0,6.1,217.0,7.6,'1111122,1111122,1111122' 
TCOON,ioos:station:TCOON:146:1,2015-04-09T15:30:00Z,28.1324,-97.0345,0.0,6.4,217.0,7.4,'1111122,1111122,1111122' 
TCOON,ioos:station:TCOON:146:1,2015-04-09T16:30:00Z,28.1324,-97.0345,0.0,7.1,227.0,8.4,'1111122,1111122,1111122' 
TCOON,ioos:station:TCOON:146:1,2015-04-09T17:30:00Z,28.1324,-97.0345,0.0,7.0,232.0,8.2,'1111122,1111122,1111122' 
TCOON,ioos:station:TCOON:146:1,2015-04-09T19:00:00Z,28.1324,-97.0345,0.0,6.5,240.0,8.5,'1111122,1111122,1111122' 
TCOON,ioos:station:TCOON:146:1,2015-04-09T20:30:00Z,28.1324,-97.0345,0.0,6.2,236.0,7.6,'1111122,1111122,1111122' 
TCOON,ioos:station:TCOON:146:1,2015-04-09T22:00:00Z,28.1324,-97.0345,0.0,6.1,231.0,7.8,'1111122,1111122,1111122' 
TCOON,ioos:station:TCOON:146:1,2015-04-09T22:30:00Z,28.1324,-97.0345,0.0,5.8,229.0,7.1,'1111122,1111122,1111122' 
TCOON,ioos:station:TCOON:146:1,2015-04-10T01:30:00Z,28.1324,-97.0345,0.0,5.2,226.0,6.7,'1111122,1111122,1111122' 
TCOON,ioos:station:TCOON:146:1,2015-04-10T02:30:00Z,28.1324,-97.0345,0.0,4.9,225.0,5.8,'1111122,1111122,1111122' 
TCOON,ioos:station:TCOON:146:1,2015-04-10T03:30:00Z,28.1324,-97.0345,0.0,4.7,233.0,5.9,'1111122,1111122,1111122' 
TCOON,ioos:station:TCOON:146:1,2015-04-10T04:30:00Z,28.1324,-97.0345,0.0,4.2,235.0,5.1,'1111122,1111122,1111122' 
TCOON,ioos:station:TCOON:146:1,2015-04-10T05:30:00Z,28.1324,-97.0345,0.0,4.3,219.0,5.2,'1111122,1111122,1111122' 
TCOON,ioos:station:TCOON:146:1,2015-04-10T08:30:00Z,28.1324,-97.0345,0.0,3.7,215.0,4.8,'1111122,1111122,1111122' 
TCOON,ioos:station:TCOON:146:1,2015-04-10T09:30:00Z,28.1324,-97.0345,0.0,4.0,229.0,4.9,'1111122,1111122,1111122' 
TCOON,ioos:station:TCOON:146:1,2015-04-10T12:30:00Z,28.1324,-97.0345,0.0,2.9,190.0,3.5,'1111122,1111122,1111122' 
TCOON,ioos:station:TCOON:146:1,2015-04-10T13:30:00Z,28.1324,-97.0345,0.0,3.2,193.0,4.4,'1111122,1111122,1111122' 
TCOON,ioos:station:TCOON:146:1,2015-04-10T15:00:00Z,28.1324,-97.0345,0.0,2.5,182.0,3.5,'1111122,1111122,1111122' 
TCOON,ioos:station:TCOON:146:1,2015-04-10T15:30:00Z,28.1324,-97.0345,0.0,4.1,208.0,5.0,'1111122,1111122,1111122' 
TCOON,ioos:station:TCOON:146:1,2015-04-10T16:30:00Z,28.1324,-97.0345,0.0,1.5,181.0,2.6,'1111122,1111122,1111122' 
TCOON,ioos:station:TCOON:146:1,2015-04-10T17:30:00Z,28.1324,-97.0345,0.0,2.2,198.0,2.9,'1111122,1111122,1111122' 
TCOON,ioos:station:TCOON:146:1,2015-04-10T21:00:00Z,28.1324,-97.0345,0.0,4.5,110.0,5.5,'1111122,1111122,1111122' 
TCOON,ioos:station:TCOON:146:1,2015-04-10T21:30:00Z,28.1324,-97.0345,0.0,4.1,114.0,5.0,'1111122,1111122,1111122' 
TCOON,ioos:station:TCOON:146:1,2015-04-10T22:30:00Z,28.1324,-97.0345,0.0,4.1,124.0,5.0,'1111122,1111122,1111122' 
TCOON,ioos:station:TCOON:146:1,2015-04-10T23:30:00Z,28.1324,-97.0345,0.0,4.4,139.0,5.0,'1111122,1111122,1111122' 
TCOON,ioos:station:TCOON:146:1,2015-04-11T01:00:00Z,28.1324,-97.0345,0.0,4.3,129.0,5.0,'1111122,1111122,1111122' 
TCOON,ioos:station:TCOON:146:1,2015-04-11T01:30:00Z,28.1324,-97.0345,0.0,4.2,139.0,4.9,'1111122,1111122,1111122' 
TCOON,ioos:station:TCOON:146:1,2015-04-11T02:30:00Z,28.1324,-97.0345,0.0,4.3,134.0,5.0,'1111122,1111122,1111122' 
TCOON,ioos:station:TCOON:146:1,2015-04-11T03:30:00Z,28.1324,-97.0345,0.0,4.3,116.0,5.0,'1111122,1111122,1111122' 
TCOON,ioos:station:TCOON:146:1,2015-04-11T04:30:00Z,28.1324,-97.0345,0.0,3.8,110.0,4.5,'1111122,1111122,1111122' 
TCOON,ioos:station:TCOON:146:1,2015-04-11T05:30:00Z,28.1324,-97.0345,0.0,4.0,119.0,4.8,'1111122,1111122,1111122' 
TCOON,ioos:station:TCOON:146:1,2015-04-11T06:30:00Z,28.1324,-97.0345,0.0,4.1,102.0,5.0,'1111122,1111122,1111122' 
TCOON,ioos:station:TCOON:146:1,2015-04-11T08:00:00Z,28.1324,-97.0345,0.0,4.4,103.0,5.1,'1111122,1111122,1111122' 
TCOON,ioos:station:TCOON:146:1,2015-04-11T08:30:00Z,28.1324,-97.0345,0.0,4.6,92.0,5.1,'1111122,1111122,1111122' 
TCOON,ioos:station:TCOON:146:1,2015-04-11T09:30:00Z,28.1324,-97.0345,0.0,3.9,100.0,4.7,'1111122,1111122,1111122' 
TCOON,ioos:station:TCOON:146:1,2015-04-11T10:30:00Z,28.1324,-97.0345,0.0,4.6,94.0,5.2,'1111122,1111122,1111122' 
TCOON,ioos:station:TCOON:146:1,2015-04-11T11:30:00Z,28.1324,-97.0345,0.0,4.6,91.0,5.1,'1111122,1111122,1111122' 
TCOON,ioos:station:TCOON:146:1,2015-04-11T12:30:00Z,28.1324,-97.0345,0.0,4.7,88.0,5.2,'1111122,1111122,1111122' 
TCOON,ioos:station:TCOON:146:1,2015-04-11T13:30:00Z,28.1324,-97.0345,0.0,4.3,113.0,5.0,'1111122,1111122,1111122' 
TCOON,ioos:station:TCOON:146:1,2015-04-11T15:30:00Z,28.1324,-97.0345,0.0,2.6,121.0,3.1,'1111122,1111122,1111122' 
TCOON,ioos:station:TCOON:146:1,2015-04-11T16:30:00Z,28.1324,-97.0345,0.0,4.3,140.0,5.5,'1111122,1111122,1111122' 
TCOON,ioos:station:TCOON:146:1,2015-04-11T19:00:00Z,28.1324,-97.0345,0.0,4.2,139.0,5.1,'1111122,1111122,1111122' 
TCOON,ioos:station:TCOON:146:1,2015-04-11T19:30:00Z,28.1324,-97.0345,0.0,4.2,149.0,4.9,'1111122,1111122,1111122' 
TCOON,ioos:station:TCOON:146:1,2015-04-11T21:00:00Z,28.1324,-97.0345,0.0,4.4,182.0,5.1,'1111122,1111122,1111122' 
TCOON,ioos:station:TCOON:146:1,2015-04-11T21:30:00Z,28.1324,-97.0345,0.0,4.2,155.0,4.8,'1111122,1111122,1111122' 
TCOON,ioos:station:TCOON:146:1,2015-04-12T01:30:00Z,28.1324,-97.0345,0.0,4.4,138.0,5.0,'1111122,1111122,1111122' 
TCOON,ioos:station:TCOON:146:1,2015-04-12T02:30:00Z,28.1324,-97.0345,0.0,4.3,143.0,5.0,'1111122,1111122,1111122' 
TCOON,ioos:station:TCOON:146:1,2015-04-12T03:30:00Z,28.1324,-97.0345,0.0,4.2,152.0,5.0,'1111122,1111122,1111122' 
TCOON,ioos:station:TCOON:146:1,2015-04-12T04:30:00Z,28.1324,-97.0345,0.0,4.1,175.0,5.0,'1111122,1111122,1111122' 
TCOON,ioos:station:TCOON:146:1,2015-04-12T05:30:00Z,28.1324,-97.0345,0.0,4.4,160.0,5.1,'1111122,1111122,1111122' 
TCOON,ioos:station:TCOON:146:1,2015-04-12T08:30:00Z,28.1324,-97.0345,0.0,4.4,184.0,5.1,'1111122,1111122,1111122' 